| time (UTC) | temp C | wind direction | speed KPH | gust KPH | rain 1hr cm | rain 24hr cm | rain mn cm | humidity % | barometer mb |
| 20260508220338 | 12 | 288 | 8.0 | 20.9 | 0.00 | 0.05 | 0.00 | 55 | 1012.0 |
| 20260508215325 | 13 | 338 | 4.8 | 9.7 | 0.00 | 0.05 | 0.00 | 53 | 1011.7 |
| 20260508214338 | 12 | 302 | 3.2 | 9.7 | 0.00 | 0.05 | 0.00 | 53 | 1011.3 |
| 20260508213325 | 12 | 232 | 8.0 | 14.5 | 0.00 | 0.05 | 0.00 | 54 | 1011.1 |
| 20260508212333 | 12 | 222 | 3.2 | 17.7 | 0.00 | 0.05 | 0.00 | 54 | 1010.7 |
| 20260508211326 | 12 | 186 | 6.4 | 22.5 | 0.00 | 0.05 | 0.00 | 54 | 1010.3 |
| 20260508210336 | 11 | 236 | 9.7 | 29.0 | 0.00 | 0.05 | 0.00 | 54 | 1010.0 |
| 20260508205325 | 11 | 211 | 14.5 | 29.0 | 0.00 | 0.05 | 0.00 | 56 | 1009.7 |
| 20260508204335 | 10 | 250 | 16.1 | 29.0 | 0.00 | 0.05 | 0.00 | 56 | 1009.8 |
| 20260508203327 | 10 | 215 | 12.9 | 24.1 | 0.00 | 0.05 | 0.00 | 56 | 1009.8 |
| 20260508202335 | 10 | 206 | 12.9 | 32.2 | 0.00 | 0.05 | 0.00 | 57 | 1009.6 |
| 20260508201342 | 10 | 198 | 12.9 | 40.2 | 0.00 | 0.05 | 0.00 | 57 | 1009.5 |
| 20260508200330 | 10 | 205 | 19.3 | 41.8 | 0.00 | 0.05 | 0.00 | 57 | 1009.7 |
| 20260508195343 | 10 | 207 | 17.7 | 27.4 | 0.00 | 0.05 | 0.00 | 56 | 1009.7 |
| 20260508194333 | 10 | 207 | 8.0 | 24.1 | 0.00 | 0.05 | 0.00 | 56 | 1009.7 |
| 20260508193343 | 10 | 192 | 14.5 | 29.0 | 0.00 | 0.05 | 0.00 | 54 | 1009.7 |
| 20260508192333 | 10 | 200 | 14.5 | 25.7 | 0.00 | 0.05 | 0.00 | 54 | 1009.7 |
| 20260508191324 | 10 | 167 | 11.3 | 25.7 | 0.00 | 0.05 | 0.00 | 54 | 1009.7 |
| 20260508190331 | 10 | 217 | 9.7 | 25.7 | 0.00 | 0.05 | 0.00 | 53 | 1009.6 |
| 20260508185341 | 10 | 120 | 11.3 | 25.7 | 0.00 | 0.05 | 0.00 | 51 | 1009.3 |
| 20260508184334 | 10 | 178 | 14.5 | 32.2 | 0.00 | 0.05 | 0.00 | 50 | 1009.2 |
| 20260508183343 | 10 | 149 | 19.3 | 32.2 | 0.00 | 0.05 | 0.00 | 50 | 1009.4 |
| 20260508182334 | 10 | 219 | 9.7 | 32.2 | 0.00 | 0.05 | 0.00 | 49 | 1009.3 |
| 20260508181343 | 10 | 173 | 14.5 | 29.0 | 0.00 | 0.05 | 0.00 | 49 | 1009.3 |
| 20260508180337 | 10 | 166 | 9.7 | 20.9 | 0.00 | 0.05 | 0.00 | 49 | 1009.1 |
| 20260508175324 | 10 | 218 | 17.7 | 29.0 | 0.00 | 0.05 | 0.00 | 48 | 1008.8 |
| 20260508174333 | 10 | 192 | 11.3 | 25.7 | 0.00 | 0.05 | 0.00 | 48 | 1009.1 |
| 20260508173343 | 10 | 225 | 12.9 | 25.7 | 0.00 | 0.05 | 0.00 | 46 | 1008.9 |
| 20260508172336 | 11 | 199 | 11.3 | 27.4 | 0.00 | 0.05 | 0.00 | 46 | 1008.9 |
| 20260508171326 | 11 | 229 | 14.5 | 27.4 | 0.00 | 0.05 | 0.00 | 46 | 1008.9 |
| 20260508170335 | 11 | 264 | 8.0 | 27.4 | 0.00 | 0.05 | 0.00 | 47 | 1009.0 |
| 20260508165327 | 11 | 184 | 11.3 | 37.0 | 0.00 | 0.05 | 0.00 | 45 | 1008.9 |
| 20260508164335 | 11 | 257 | 19.3 | 33.8 | 0.00 | 0.05 | 0.00 | 44 | 1008.9 |
| 20260508163325 | 11 | 228 | 12.9 | 35.4 | 0.00 | 0.05 | 0.00 | 44 | 1008.7 |
| 20260508162335 | 11 | 229 | 20.9 | 35.4 | 0.00 | 0.05 | 0.00 | 44 | 1008.9 |
| 20260508161328 | 11 | 277 | 14.5 | 27.4 | 0.00 | 0.05 | 0.00 | 44 | 1009.2 |
| 20260508160339 | 11 | 292 | 19.3 | 30.6 | 0.00 | 0.05 | 0.00 | 42 | 1009.0 |
| 20260508155328 | 11 | 213 | 16.1 | 29.0 | 0.00 | 0.05 | 0.00 | 42 | 1009.0 |
| 20260508154335 | 11 | 223 | 12.9 | 29.0 | 0.00 | 0.05 | 0.00 | 42 | 1009.3 |
| 20260508153327 | 11 | 221 | 11.3 | 29.0 | 0.00 | 0.05 | 0.00 | 43 | 1009.4 |
| 20260508152335 | 11 | 235 | 9.7 | 27.4 | 0.00 | 0.05 | 0.00 | 42 | 1009.4 |
| 20260508151324 | 11 | 221 | 12.9 | 25.7 | 0.00 | 0.05 | 0.00 | 41 | 1009.4 |
| 20260508150332 | 11 | 209 | 11.3 | 22.5 | 0.00 | 0.05 | 0.00 | 39 | 1009.6 |
| 20260508145342 | 11 | 237 | 11.3 | 30.6 | 0.00 | 0.05 | 0.05 | 40 | 1009.7 |
| 20260508144330 | 11 | 194 | 14.5 | 25.7 | 0.00 | 0.05 | 0.05 | 40 | 1009.6 |
| 20260508143338 | 11 | 200 | 4.8 | 19.3 | 0.00 | 0.05 | 0.05 | 41 | 1009.8 |
| 20260508142332 | 12 | 263 | 6.4 | 20.9 | 0.00 | 0.05 | 0.05 | 45 | 1009.6 |
| 20260508141339 | 12 | 267 | 9.7 | 27.4 | 0.00 | 0.05 | 0.05 | 47 | 1009.2 |
| 20260508140329 | 12 | 254 | 12.9 | 29.0 | 0.00 | 0.05 | 0.05 | 50 | 1009.1 |
| 20260508135336 | 13 | 269 | 19.3 | 43.5 | 0.00 | 0.05 | 0.05 | 53 | 1008.9 |
| 20260508134329 | 13 | 288 | 16.1 | 33.8 | 0.00 | 0.05 | 0.05 | 56 | 1008.5 |
| 20260508133338 | 13 | 294 | 12.9 | 32.2 | 0.00 | 0.05 | 0.05 | 57 | 1008.3 |
| 20260508132328 | 13 | 78 | 20.9 | 32.2 | 0.00 | 0.05 | 0.05 | 58 | 1007.8 |
| 20260508131338 | 13 | 9 | 8.0 | 22.5 | 0.00 | 0.05 | 0.05 | 59 | 1007.9 |
| 20260508130332 | 13 | 10 | 4.8 | 27.4 | 0.00 | 0.05 | 0.05 | 59 | 1007.8 |
| 20260508125341 | 13 | 265 | 11.3 | 35.4 | 0.00 | 0.05 | 0.05 | 60 | 1008.1 |
| 20260508124328 | 13 | 282 | 12.9 | 32.2 | 0.00 | 0.05 | 0.05 | 63 | 1007.8 |
| 20260508123337 | 14 | 318 | 20.9 | 32.2 | 0.00 | 0.05 | 0.05 | 62 | 1007.4 |
| 20260508122329 | 14 | 321 | 11.3 | 29.0 | 0.00 | 0.05 | 0.05 | 64 | 1007.4 |
| 20260508121338 | 15 | 245 | 16.1 | 38.6 | 0.00 | 0.05 | 0.05 | 64 | 1007.1 |
| 20260508120327 | 15 | 277 | 19.3 | 27.4 | 0.00 | 0.05 | 0.05 | 62 | 1007.1 |
| 20260508115338 | 15 | 278 | 11.3 | 19.3 | 0.00 | 0.05 | 0.05 | 60 | 1006.5 |
| 20260508114328 | 16 | 299 | 16.1 | 27.4 | 0.00 | 0.05 | 0.05 | 61 | 1006.6 |
| 20260508113337 | 16 | 285 | 8.0 | 19.3 | 0.00 | 0.05 | 0.05 | 61 | 1006.7 |
| 20260508112327 | 16 | 286 | 11.3 | 20.9 | 0.00 | 0.05 | 0.05 | 61 | 1006.4 |
| 20260508111340 | 16 | 296 | 4.8 | 16.1 | 0.00 | 0.05 | 0.05 | 61 | 1006.3 |
| 20260508110329 | 16 | 215 | 6.4 | 24.1 | 0.00 | 0.05 | 0.05 | 62 | 1006.1 |
| 20260508105339 | 16 | 221 | 4.8 | 17.7 | 0.00 | 0.05 | 0.05 | 63 | 1005.9 |
| 20260508104327 | 17 | 213 | 4.8 | 32.2 | 0.00 | 0.05 | 0.05 | 62 | 1005.6 |
| 20260508103338 | 16 | 224 | 12.9 | 17.7 | 0.00 | 0.05 | 0.05 | 63 | 1005.2 |
| 20260508102327 | 17 | 253 | 6.4 | 20.9 | 0.00 | 0.05 | 0.05 | 67 | 1005.0 |
| 20260508101334 | 17 | 246 | 9.7 | 17.7 | 0.00 | 0.05 | 0.05 | 67 | 1004.8 |
| 20260508100327 | 17 | 235 | 8.0 | 16.1 | 0.03 | 0.05 | 0.05 | 69 | 1005.4 |
| 20260508095335 | 17 | 203 | 6.4 | 17.7 | 0.03 | 0.05 | 0.05 | 70 | 1005.4 |
| 20260508094342 | 16 | 187 | 9.7 | 20.9 | 0.03 | 0.05 | 0.05 | 70 | 1005.3 |
| 20260508093330 | 17 | 199 | 12.9 | 32.2 | 0.03 | 0.05 | 0.05 | 70 | 1005.5 |
| 20260508092341 | 17 | 222 | 9.7 | 19.3 | 0.03 | 0.05 | 0.05 | 73 | 1005.5 |
| 20260508091330 | 17 | 285 | 6.4 | 11.3 | 0.03 | 0.05 | 0.05 | 73 | 1005.1 |
| 20260508090339 | 17 | 206 | 9.7 | 25.7 | 0.00 | 0.03 | 0.03 | 70 | 1005.0 |
| 20260508085328 | 18 | 226 | 9.7 | 32.2 | 0.00 | 0.03 | 0.03 | 65 | 1004.7 |
| 20260508084342 | 19 | 211 | 17.7 | 40.2 | 0.00 | 0.03 | 0.03 | 63 | 1004.5 |
| 20260508083330 | 18 | 200 | 16.1 | 27.4 | 0.00 | 0.03 | 0.03 | 65 | 1004.0 |
| 20260508082339 | 18 | 309 | 3.2 | 9.7 | 0.00 | 0.03 | 0.03 | 73 | 1004.0 |
| 20260508081328 | 18 | 283 | 3.2 | 11.3 | 0.00 | 0.03 | 0.03 | 71 | 1004.2 |
| 20260508080341 | 18 | 226 | 1.6 | 8.0 | 0.03 | 0.03 | 0.03 | 73 | 1004.2 |
| 20260508075331 | 18 | 267 | 1.6 | 8.0 | 0.03 | 0.03 | 0.03 | 74 | 1004.3 |
| 20260508074340 | 17 | 246 | 4.8 | 8.0 | 0.03 | 0.03 | 0.03 | 72 | 1004.5 |
| 20260508073333 | 18 | 275 | 3.2 | 16.1 | 0.03 | 0.03 | 0.03 | 71 | 1004.6 |
| 20260508072341 | 19 | 250 | 4.8 | 16.1 | 0.03 | 0.03 | 0.03 | 66 | 1004.9 |
| 20260508071329 | 20 | 216 | 8.0 | 33.8 | 0.03 | 0.03 | 0.03 | 63 | 1004.8 |
| 20260508070338 | 21 | 145 | 12.9 | 24.1 | 0.00 | 0.00 | 0.00 | 54 | 1004.6 |
| 20260508065331 | 21 | 192 | 16.1 | 32.2 | 0.00 | 0.00 | 0.00 | 49 | 1004.5 |
| 20260508064339 | 21 | 205 | 19.3 | 32.2 | 0.00 | 0.00 | 0.00 | 49 | 1004.4 |
| 20260508063327 | 21 | 211 | 9.7 | 37.0 | 0.00 | 0.00 | 0.00 | 50 | 1004.2 |
| 20260508062337 | 21 | 232 | 19.3 | 38.6 | 0.00 | 0.00 | 0.00 | 49 | 1004.3 |
| 20260508061328 | 22 | 213 | 19.3 | 37.0 | 0.00 | 0.00 | 0.00 | 50 | 1004.1 |
| 20260508060338 | 22 | 222 | 17.7 | 40.2 | 0.00 | 0.00 | 0.00 | 49 | 1004.2 |
| 20260508055328 | 22 | 232 | 11.3 | 37.0 | 0.00 | 0.00 | 0.00 | 46 | 1004.0 |
| 20260508054338 | 22 | 219 | 22.5 | 41.8 | 0.00 | 0.00 | 0.00 | 45 | 1003.9 |
| 20260508053330 | 22 | 162 | 14.5 | 38.6 | 0.00 | 0.00 | 0.00 | 47 | 1003.7 |
| 20260508052340 | 22 | 142 | 17.7 | 35.4 | 0.00 | 0.00 | 0.00 | 49 | 1004.3 |
| 20260508051328 | 22 | 209 | 17.7 | 38.6 | 0.00 | 0.00 | 0.00 | 52 | 1004.9 |
| 20260508050339 | 22 | 193 | 16.1 | 33.8 | 0.00 | 0.00 | 0.00 | 53 | 1005.1 |
| 20260508045330 | 22 | 171 | 14.5 | 32.2 | 0.00 | 0.00 | 0.00 | 54 | 1005.0 |
| 20260508044339 | 22 | 232 | 11.3 | 38.6 | 0.00 | 0.00 | 0.00 | 55 | 1005.3 |
| 20260508043327 | 22 | 172 | 17.7 | 37.0 | 0.00 | 0.00 | 0.00 | 55 | 1005.1 |
| 20260508042340 | 22 | 146 | 17.7 | 29.0 | 0.00 | 0.00 | 0.00 | 55 | 1005.3 |
| 20260508041330 | 22 | 180 | 11.3 | 33.8 | 0.00 | 0.00 | 0.00 | 55 | 1005.4 |
| 20260508040339 | 22 | 214 | 16.1 | 33.8 | 0.00 | 0.00 | 0.00 | 54 | 1005.3 |
| 20260508035328 | 22 | 195 | 22.5 | 40.2 | 0.00 | 0.00 | 0.00 | 54 | 1005.3 |
| 20260508034342 | 22 | 130 | 20.9 | 37.0 | 0.00 | 0.00 | 0.00 | 55 | 1005.5 |
| 20260508033332 | 22 | 177 | 16.1 | 33.8 | 0.00 | 0.00 | 0.00 | 54 | 1005.5 |
| 20260508032342 | 22 | 226 | 16.1 | 33.8 | 0.00 | 0.00 | 0.00 | 53 | 1005.7 |
| 20260508031334 | 22 | 190 | 17.7 | 32.2 | 0.00 | 0.00 | 0.00 | 54 | 1005.8 |
| 20260508030344 | 22 | 221 | 16.1 | 24.1 | 0.00 | 0.00 | 0.00 | 55 | 1005.8 |
| 20260508025333 | 22 | 186 | 9.7 | 25.7 | 0.00 | 0.00 | 0.00 | 57 | 1005.8 |
| 20260508024342 | 22 | 165 | 14.5 | 27.4 | 0.00 | 0.00 | 0.00 | 57 | 1005.9 |
| 20260508023334 | 22 | 165 | 12.9 | 25.7 | 0.00 | 0.00 | 0.00 | 57 | 1006.2 |
| 20260508022343 | 22 | 162 | 14.5 | 38.6 | 0.00 | 0.00 | 0.00 | 59 | 1006.4 |
| 20260508021331 | 22 | 202 | 16.1 | 37.0 | 0.00 | 0.00 | 0.00 | 58 | 1006.6 |
| 20260508020339 | 22 | 195 | 14.5 | 30.6 | 0.00 | 0.00 | 0.00 | 58 | 1006.5 |
| 20260508015330 | 22 | 241 | 17.7 | 37.0 | 0.00 | 0.00 | 0.00 | 58 | 1006.8 |
| 20260508014339 | 22 | 240 | 24.1 | 37.0 | 0.00 | 0.00 | 0.00 | 59 | 1007.1 |
| 20260508013327 | 22 | 209 | 16.1 | 33.8 | 0.00 | 0.00 | 0.00 | 64 | 1007.1 |
| 20260508012337 | 21 | 149 | 12.9 | 29.0 | 0.00 | 0.00 | 0.00 | 66 | 1007.0 |
| 20260508011331 | 20 | 220 | 14.5 | 27.4 | 0.00 | 0.00 | 0.00 | 68 | 1007.5 |
| 20260508010338 | 20 | 200 | 11.3 | 29.0 | 0.00 | 0.00 | 0.00 | 67 | 1007.5 |
| 20260508005325 | 20 | 146 | 11.3 | 29.0 | 0.00 | 0.00 | 0.00 | 70 | 1007.8 |
| 20260508004339 | 20 | 148 | 17.7 | 27.4 | 0.00 | 0.00 | 0.00 | 70 | 1007.8 |
| 20260508003328 | 19 | 184 | 16.1 | 32.2 | 0.00 | 0.00 | 0.00 | 71 | 1008.1 |
| 20260508002337 | 19 | 194 | 11.3 | 27.4 | 0.00 | 0.00 | 0.00 | 70 | 1008.1 |
| 20260508001326 | 19 | 219 | 17.7 | 30.6 | 0.00 | 0.00 | 0.00 | 68 | 1008.0 |
| 20260508000342 | 19 | 165 | 11.3 | 27.4 | 0.00 | 0.00 | 0.00 | 71 | 1007.9 |
| 20260507235328 | 18 | 205 | 12.9 | 20.9 | 0.00 | 0.00 | 0.00 | 72 | 1008.4 |
| 20260507234338 | 18 | 124 | 16.1 | 24.1 | 0.00 | 0.00 | 0.00 | 72 | 1008.6 |
| 20260507233326 | 18 | 178 | 8.0 | 27.4 | 0.00 | 0.00 | 0.00 | 75 | 1008.3 |
| 20260507232339 | 18 | 180 | 8.0 | 24.1 | 0.00 | 0.00 | 0.00 | 75 | 1009.0 |
| 20260507231328 | 18 | 192 | 14.5 | 29.0 | 0.00 | 0.00 | 0.00 | 71 | 1009.1 |
| 20260507230337 | 18 | 188 | 11.3 | 25.7 | 0.00 | 0.00 | 0.00 | 72 | 1008.9 |
| 20260507225329 | 18 | 162 | 12.9 | 29.0 | 0.00 | 0.00 | 0.00 | 70 | 1008.9 |
| 20260507224338 | 18 | 166 | 9.7 | 22.5 | 0.00 | 0.00 | 0.00 | 71 | 1008.9 |
| 20260507223326 | 18 | 155 | 11.3 | 22.5 | 0.00 | 0.00 | 0.00 | 70 | 1008.8 |
| 20260507222334 | 18 | 151 | 11.3 | 27.4 | 0.00 | 0.00 | 0.00 | 70 | 1008.9 |
| 20260507221326 | 18 | 174 | 11.3 | 22.5 | 0.00 | 0.00 | 0.00 | 70 | 1009.0 |